Location: Proctor
(47.8934°N, 114.3048°W)
Time: 13:20:00
(UTC+00:00)

AO-91 - Pass Details

Date: 06 July 2022
Orbit: 450 x 797 km, 97.7° (Epoch: 12 August)

Event Time Altitude Azimuth Distance (km) Brightness Sun altitude
Rises 05:41:37 0° 26° (NNE) 2,483 ? -14.4°
Reaches altitude 10° 05:44:01 10° 43° (NE) 1,593 ? -14.6°
Maximum altitude 05:46:40 21° 95° (E) 1,074 ? -14.8°
Enters shadow 05:47:06 20° 106° (ESE) 1,092 ? -14.9°
